Domov               UVHVVR             MKGP            O straneh              
ZDRAVSTVENO VARSTVO RASTLIN
  MREŽA AGROMET. POSTAJ
 ► PROGNOSTIČNA OBVESTILA
AGROMETEOROLOŠKI PODATKI -
ARSO
OBVLADOVANJE TVEGANJ ZARADI
NEUGODNIH VREMENSKIH RAZMER
  ► NARAVNE NESREČE
  ► SUŠA/MOČA
  ► NAMAKANJE
  ► ŽLED (gozdarstvo)
KARTOGRAFSKI PRIKAZI
SPLETNE POVEZAVE
PROJEKTI IN PUBLIKACIJE

AGROMETEOROLOŠKA MREŽA: VREMENSKE POSTAJE IN FENOLOŠKA OPAZOVANJA

Pregled podatkov za lokacijo Zbigovci, meteorološka postaja 25164

Pregled senzorjev na lokaciji

ID Ime Zadnja
vrednost
Datum
zadnje
spremembe
Tip
senzorja
1931 Omočenost lista (U) 0 U 25.2.2018 12:00 A730WET
1930 Padavine (mm) 0 mm 25.2.2018 12:00 Generic 0.2 mm
1932 Relativna vlaga 2 m (% RH) 46,74 % RH 25.2.2018 12:00 Generic 0 - 100 %
1933 Temperatura 2 m (°C) -5,86 °C 25.2.2018 12:00 Generic -40 - +60 °C

Pregled podatkov zadnjih 24 ur

Zap.
št.
Datum in čas Zbigovci
Omočenost
lista
Padavine Relativna
vlaga
2
m
Temperatura
2
m
1 25.2.2018 12:30
2 25.2.2018 12:00 0 0 46,7 -5,9
3 25.2.2018 11:30 0 0 46,6 -6,1
4 25.2.2018 11:00 0 0 48,1 -6,6
5 25.2.2018 10:30 0 0 50,1 -7,4
6 25.2.2018 10:00 0 0 52,6 -8
7 25.2.2018 09:30 0 0 56,8 -8,7
8 25.2.2018 09:00 0 0 57,9 -9,1
9 25.2.2018 08:30 0 0 61,3 -9,8
10 25.2.2018 08:00 0 0 62,9 -10,2
11 25.2.2018 07:30 0 0 66 -11
12 25.2.2018 07:00 0 0 66,8 -11
13 25.2.2018 06:30 0 0 66,2 -10,6
14 25.2.2018 06:00 0 0 66,3 -10,4
15 25.2.2018 05:30 0 0 64,4 -9,9
16 25.2.2018 05:00 0 0 62,4 -9,5
17 25.2.2018 04:30 0 0 62,4 -9,2
18 25.2.2018 04:00 0 0 61,9 -8,8
19 25.2.2018 03:30 0 0 63,7 -8,6
20 25.2.2018 03:00 0 0 66 -8,2
21 25.2.2018 02:30 0 0 65,4 -8,1
22 25.2.2018 02:00 0 0 64,2 -7,6
23 25.2.2018 01:30 0 0 62,8 -7,4
24 25.2.2018 01:00 0 0 61,2 -7,1
25 25.2.2018 00:30 0 0 60,2 -6,9
26 25.2.2018 00:00 0 0 58,7 -6,4
27 24.2.2018 23:30 0 0 57,1 -5,9
28 24.2.2018 23:00 0 0 54,7 -5,6
29 24.2.2018 22:30 0 0 52,5 -5,3
30 24.2.2018 22:00 0 0 51,4 -5,1
31 24.2.2018 21:30 0 0 53 -4,9
32 24.2.2018 21:00 0 0 60,1 -4,7
33 24.2.2018 20:30 0 0 64 -4,3
34 24.2.2018 20:00 0 0 67,2 -4,2
35 24.2.2018 19:30 0 0 63,1 -4,2
36 24.2.2018 19:00 0 0 61,8 -4,1
37 24.2.2018 18:30 0 0 58,3 -4
38 24.2.2018 18:00 0 0 57,4 -3,8
39 24.2.2018 17:30 0 0 55,7 -3,2
40 24.2.2018 17:00 0 0 55,1 -2,5
41 24.2.2018 16:30 0 0 53,9 -2,5
42 24.2.2018 16:00 0 0,2 53,2 -1,6
43 24.2.2018 15:30 0 0 51,4 -0,6
44 24.2.2018 15:00 0 0 55,4 0,3
45 24.2.2018 14:30 0 0 55,3 -0,4
46 24.2.2018 14:00 0 0 60,7 -1,1
47 24.2.2018 13:30 0 0 64,7 -1,6
48 24.2.2018 13:00 0 0 62,9 -1,4
© 2011 Ministrstvo za kmetijstvo, gozdarstvo in prehrano. Vse pravice pridržane.